Theta_e
291 291 291 291 290 290 290 290 290 290 289 289 289 289 289 289 289 289 289 289 289 289 289 289 288 288 288 288 288 288 288 287 287 287 287 287 287 287 287 287 287 287 287 287 287 287 287 287 288 288 288 288 288 288 288 288 288 288 288 289 290 292 293 294 294 294 295 296 296 297 296 296 296 297 296 296 296 296 296 296 296 296 296 296 297
291 291 291 290 290 290 290 290 290 290 289 289 289 289 289 289 289 289 288 288 288 288 288 288 288 288 288 288 287 287 287 287 287 287 287 287 286 286 286 286 286 286 286 287 287 287 287 287 287 287 287 287 287 287 287 288 288 288 288 287 288 288 290 292 293 294 294 295 295 296 296 296 296 296 296 296 296 296 296 296 296 296 296 296 296
291 291 290 290 290 290 290 290 290 290 289 289 289 289 289 288 288 288 288 288 288 287 287 287 287 287 287 287 287 287 287 287 287 286 286 286 286 286 286 286 286 286 286 286 286 286 286 287 287 287 287 287 287 287 287 287 287 287 287 287 287 287 287 288 289 291 292 294 294 295 296 296 296 296 296 296 296 296 296 296 295 295 295 295 295
290 290 290 290 290 290 290 290 290 290 290 289 289 288 288 288 288 288 288 288 287 287 287 286 286 286 286 286 286 286 286 286 286 286 286 286 286 286 286 286 286 286 286 286 287 287 286 287 287 287 286 286 287 287 287 287 287 287 287 287 287 287 287 287 287 287 288 290 291 293 294 295 296 296 295 295 295 295 295 295 295 295 295 295 295
290 290 290 290 290 290 290 290 290 290 290 289 289 288 288 288 288 288 287 287 287 287 286 286 286 286 285 286 286 286 286 286 286 286 286 286 286 286 286 286 286 287 287 287 287 286 286 287 287 287 286 286 286 287 286 286 286 286 286 287 287 287 287 287 287 287 287 287 287 288 290 292 294 295 295 295 295 295 295 295 295 295 295 294 295
290 290 290 290 290 290 290 290 290 290 290 289 288 288 288 288 287 287 287 286 286 286 286 285 285 285 285 285 285 285 285 285 285 286 286 286 286 286 286 286 286 286 287 287 287 287 287 287 287 286 286 286 286 286 286 286 286 285 285 286 286 286 286 286 287 287 287 287 286 286 287 288 289 291 293 295 295 294 294 294 294 294 294 294 294
290 290 290 290 290 290 290 290 290 290 290 289 288 288 287 287 287 286 286 285 285 285 285 285 285 285 285 285 285 285 285 285 285 285 285 285 285 285 286 286 286 286 286 287 287 287 287 286 286 286 286 285 285 285 285 285 285 285 285 285 285 285 285 286 286 286 286 287 287 286 286 286 287 288 289 292 294 294 294 293 293 294 294 294 294
291 290 290 291 290 290 290 290 290 290 289 288 287 287 287 287 286 286 285 284 284 284 284 284 285 285 285 285 285 285 285 285 285 284 284 284 284 284 285 285 285 285 286 286 286 286 286 286 286 286 286 285 285 284 284 284 283 283 283 284 284 284 284 284 285 285 286 286 286 287 286 286 286 286 287 289 291 292 293 293 293 294 294 294 294
291 290 290 290 290 290 289 289 289 288 288 287 287 287 286 286 286 285 284 284 284 284 284 284 284 285 284 284 284 284 284 284 284 284 284 284 284 284 284 284 284 284 284 285 285 285 285 285 286 285 285 285 285 284 283 283 283 282 283 283 283 283 283 283 284 284 285 285 285 286 286 286 286 286 287 288 288 289 291 292 293 294 293 293 294
290 289 289 289 288 288 288 288 287 287 287 287 287 286 286 285 285 284 284 284 284 284 284 284 284 284 284 284 284 284 284 284 284 284 283 283 283 283 283 283 283 283 283 283 284 284 284 284 284 284 285 285 285 284 283 283 282 282 282 282 283 283 283 283 283 283 284 284 285 285 286 286 286 286 287 287 287 288 290 291 292 293 292 292 293
289 288 288 288 288 288 287 287 287 287 287 286 286 285 285 284 284 284 284 284 284 284 284 284 284 284 284 284 284 284 284 284 283 283 283 282 282 281 282 282 282 282 282 282 282 282 283 282 282 282 282 283 283 283 283 283 282 281 281 282 282 283 283 283 284 284 284 284 284 284 285 285 286 286 286 287 287 288 289 289 291 292 291 290 291
288 288 288 288 288 287 287 287 287 286 286 285 285 284 284 284 284 284 284 284 284 284 284 284 284 284 284 284 284 284 284 284 283 283 282 282 280 279 279 280 280 280 280 280 280 280 280 280 280 280 280 280 280 281 281 282 282 281 281 281 282 283 283 284 284 284 284 284 284 284 284 284 285 285 286 286 287 287 288 288 289 290 291 290 291
288 288 288 288 287 287 287 287 286 285 285 284 284 283 283 284 284 284 284 284 284 284 284 284 283 283 283 283 283 283 283 283 282 282 281 280 279 278 278 278 277 277 277 277 277 277 277 277 277 278 278 278 278 278 278 279 280 280 280 280 281 281 282 282 283 283 283 284 284 284 283 283 284 284 285 286 287 287 287 288 288 289 290 290 290
288 288 288 287 287 287 287 286 285 284 284 283 283 283 283 284 284 284 284 284 284 283 283 283 283 283 283 283 283 283 283 282 281 280 279 278 277 276 276 276 276 275 276 275 275 275 275 274 275 275 276 276 275 276 276 277 277 278 278 279 279 280 280 281 281 281 282 283 284 284 283 283 284 284 284 285 286 287 287 287 288 288 289 289 289
288 287 287 287 287 287 286 285 284 284 283 283 283 283 283 283 283 283 283 283 283 283 283 283 283 282 282 282 282 282 282 280 279 278 277 277 276 275 275 275 274 274 274 274 273 273 273 273 273 274 274 274 274 274 275 276 277 277 278 278 279 279 280 280 280 281 281 282 282 282 282 282 283 283 283 285 286 286 286 287 287 288 288 289 289
287 287 287 287 287 286 285 284 283 283 283 283 283 283 283 283 283 283 283 283 283 282 282 282 282 282 282 281 281 281 280 279 278 277 276 275 274 274 273 273 273 273 273 272 271 271 270 271 271 272 273 273 273 273 274 275 276 276 277 278 278 279 280 280 280 281 281 282 282 282 282 282 282 282 282 283 284 285 285 286 287 288 288 288 288
287 287 287 286 286 285 284 283 283 282 283 283 283 283 283 283 283 282 282 282 282 282 282 281 281 281 281 280 279 279 279 278 276 276 275 274 274 273 272 272 272 271 270 270 269 269 269 269 270 271 271 272 272 273 274 274 275 275 276 276 277 277 278 278 279 279 280 281 282 283 283 283 284 284 283 283 284 284 285 286 286 287 287 288 288
287 286 286 286 285 284 283 282 282 282 282 282 282 283 282 282 282 282 282 282 282 281 281 281 281 280 279 279 277 277 277 276 275 275 274 273 272 272 271 271 269 268 268 268 268 268 268 269 269 270 270 271 272 272 273 274 275 275 275 276 276 276 276 277 278 278 279 280 281 282 282 283 283 284 284 284 283 284 285 285 285 286 287 288 288
286 286 286 285 284 283 282 282 282 282 282 282 282 282 282 282 281 281 281 281 281 281 280 280 280 279 278 278 276 275 276 275 274 274 273 272 271 270 270 268 268 267 268 268 268 268 268 269 269 270 270 271 272 273 273 274 274 275 275 276 276 276 276 277 277 278 278 279 279 280 280 281 282 282 282 283 283 283 284 284 285 286 287 287 287
286 286 285 284 283 282 281 281 281 281 281 281 281 281 281 281 281 280 280 280 280 280 280 279 279 279 277 277 276 274 274 274 274 273 272 271 270 269 268 267 267 268 268 268 268 268 269 269 270 270 271 271 272 272 273 273 273 274 274 274 275 275 276 276 277 277 278 278 279 279 280 281 282 282 283 283 283 283 283 283 284 285 286 287 287
285 285 284 283 282 281 281 281 281 281 281 281 281 281 280 280 280 280 280 280 279 279 279 278 278 278 277 276 275 274 274 274 273 273 271 270 270 269 268 268 268 268 268 269 269 269 270 270 270 270 271 271 271 272 272 273 273 273 274 274 274 275 275 276 276 277 277 278 278 278 279 280 281 281 282 283 283 283 283 283 283 283 284 286 287
285 285 283 282 281 281 281 281 280 280 280 280 280 280 279 279 279 279 279 279 279 279 278 277 277 277 276 275 274 274 273 273 273 272 271 270 270 269 268 268 269 269 270 270 270 270 270 270 270 271 271 271 272 272 273 273 274 274 274 274 275 275 276 276 276 276 276 277 277 278 278 279 279 280 281 281 282 282 282 282 283 283 283 284 285
284 283 282 281 281 281 280 280 280 280 280 279 279 279 279 279 278 278 278 278 278 278 277 276 275 275 275 275 274 274 274 274 274 273 271 271 270 270 269 269 270 270 271 271 271 271 271 271 271 272 272 272 273 273 274 274 275 275 275 275 275 275 275 275 275 275 275 275 276 277 277 278 278 279 280 281 281 281 281 281 282 282 283 283 284
283 282 281 281 281 280 280 280 280 279 279 278 278 278 278 278 278 278 278 277 277 277 276 275 274 274 274 274 274 274 274 274 275 274 272 271 271 270 270 270 271 271 271 271 271 271 271 272 272 273 273 273 274 274 274 275 274 274 274 274 275 275 274 274 274 274 274 274 274 275 276 277 277 278 279 280 281 282 282 282 282 283 283 283 283
282 281 281 281 280 280 280 280 279 279 278 278 278 278 278 278 278 278 277 277 276 275 275 274 273 273 273 273 273 274 274 274 275 274 273 271 271 271 271 271 271 272 272 272 272 272 272 273 273 273 274 274 274 274 274 273 273 273 274 274 274 274 274 274 274 274 273 273 273 274 274 275 276 277 278 279 279 281 282 283 284 284 284 284 283
281 281 281 280 280 280 280 279 279 278 277 277 277 277 277 277 277 277 277 276 275 274 274 273 273 273 273 272 272 272 273 272 272 272 272 271 271 271 271 271 271 272 272 272 273 273 273 274 274 274 273 273 273 273 273 273 273 273 274 274 274 273 273 273 273 273 273 273 273 273 273 274 275 275 276 277 278 279 280 281 283 284 284 284 284
281 280 280 280 279 279 279 279 278 278 277 277 277 277 277 277 277 276 276 275 274 274 273 273 273 272 271 270 270 270 269 268 268 269 270 270 270 271 271 271 272 272 272 273 273 273 274 274 274 273 273 273 273 273 273 273 273 273 273 273 273 273 273 273 273 273 273 273 273 273 273 273 274 274 275 276 277 278 279 280 281 283 284 284 284
280 280 280 279 279 278 278 278 277 277 277 277 276 276 276 276 276 276 275 274 274 273 272 272 271 270 269 268 268 268 268 267 267 268 269 270 270 271 271 272 273 273 273 273 274 274 274 274 273 273 273 273 273 273 273 273 272 272 272 272 272 273 273 273 273 273 273 273 273 273 273 273 274 274 275 276 276 277 278 279 280 282 284 284 284
280 279 279 279 278 278 277 277 276 276 276 276 276 276 276 276 276 276 275 274 273 273 271 270 269 268 267 267 268 267 267 268 268 269 269 270 271 272 272 273 273 273 273 274 274 274 274 274 274 274 273 273 273 273 273 273 273 273 273 273 273 273 273 272 272 273 273 273 273 273 273 274 274 274 275 276 276 277 278 279 280 282 284 285 285
279 279 278 278 277 277 277 276 276 276 276 276 276 276 276 276 275 275 274 274 273 272 271 270 269 268 267 268 268 268 268 268 268 269 270 271 271 272 272 273 274 274 274 274 274 274 274 274 274 274 273 273 273 273 274 274 274 274 274 274 274 273 272 272 272 272 272 273 273 273 273 273 274 274 275 276 276 277 278 279 280 282 284 285 285
279 279 278 277 277 276 276 275 275 275 275 275 275 275 276 276 276 275 274 273 273 273 272 271 271 270 269 269 268 268 268 268 268 269 270 270 270 271 272 273 274 274 274 274 274 274 274 274 274 274 274 274 274 274 274 274 274 274 274 273 273 272 271 271 271 271 271 272 272 273 273 273 274 274 275 275 276 277 278 279 280 282 284 285 285
278 278 277 276 276 275 275 275 274 274 274 274 274 275 275 276 276 276 275 274 273 273 273 272 272 271 272 271 269 268 268 268 268 268 269 269 270 270 271 273 273 273 273 273 273 273 273 273 273 274 274 274 274 274 274 274 274 273 272 271 271 271 271 270 271 271 271 271 272 273 273 274 274 274 274 275 276 277 278 280 282 283 285 285 284
277 277 276 275 275 274 274 274 274 274 274 274 274 275 274 274 275 276 276 276 275 274 273 273 273 273 273 272 271 270 269 268 268 268 269 269 270 270 271 272 273 273 273 273 273 273 273 273 274 274 274 274 274 274 274 274 274 274 273 272 272 272 272 271 271 271 271 271 272 273 273 274 274 274 274 275 276 277 278 280 282 284 285 285 284
276 276 275 275 274 273 273 273 273 273 273 274 274 274 274 273 273 273 274 276 276 276 275 274 273 272 272 273 272 271 271 271 270 269 268 269 269 270 272 273 274 274 273 272 272 272 272 273 273 273 273 273 274 274 274 275 275 274 274 274 273 273 273 273 272 272 272 272 272 273 274 274 274 274 274 275 276 277 279 281 282 283 284 284 284
275 275 274 274 273 273 273 273 273 273 273 273 273 273 273 273 273 272 273 273 274 275 276 275 274 272 271 271 271 271 271 271 270 269 269 270 271 271 273 274 274 274 274 273 272 271 271 271 272 272 273 273 274 274 274 275 275 275 275 275 274 275 275 275 274 274 274 273 273 273 274 274 274 275 275 276 277 278 280 282 283 284 284 284 284
274 274 273 273 272 272 272 272 272 273 273 273 273 273 273 272 272 273 272 272 273 273 274 275 275 273 272 271 271 271 271 271 269 269 270 271 271 272 273 273 273 274 274 273 273 272 272 271 271 271 272 273 273 274 274 274 274 275 275 275 275 275 276 276 276 276 275 275 274 274 274 275 275 275 276 276 278 280 282 283 284 284 284 284 284
273 273 272 272 272 272 272 272 272 272 273 273 273 273 272 272 273 273 273 272 272 273 273 273 274 274 274 273 272 273 273 271 270 270 271 272 272 272 272 272 272 272 272 272 272 272 272 271 271 271 272 272 273 273 273 273 274 275 276 276 275 276 277 277 277 276 276 276 275 275 275 275 275 276 276 277 278 281 282 283 283 283 283 283 283
273 272 272 271 271 272 272 272 272 272 272 272 272 272 272 273 273 273 273 272 272 272 272 272 272 273 274 274 273 274 274 273 272 272 272 272 272 272 271 271 271 271 271 270 270 270 270 270 270 271 271 272 272 272 273 273 274 274 275 275 276 277 277 277 277 277 277 276 276 275 275 275 275 276 277 278 279 280 282 282 283 283 283 283 282
272 271 271 271 271 271 271 271 272 272 272 272 272 272 272 273 273 273 273 272 272 271 271 271 271 271 271 272 273 273 273 272 272 272 272 272 271 271 271 271 271 270 270 269 269 268 269 269 269 270 271 271 271 272 272 272 273 274 274 275 276 277 277 277 277 277 277 277 277 276 276 276 276 277 278 279 280 280 280 281 281 282 282 282 282
271 271 271 271 271 271 271 271 271 272 272 272 272 272 272 272 272 272 272 272 271 271 271 270 270 270 270 271 271 270 270 270 271 271 271 271 271 271 270 270 270 270 270 270 269 269 268 268 269 269 270 270 270 271 271 272 272 273 273 274 275 276 276 276 276 277 277 277 277 277 277 277 277 277 278 279 280 280 280 280 280 280 281 281 282
271 271 270 270 270 270 271 271 271 271 271 271 272 272 272 272 272 272 272 271 271 271 270 270 270 270 270 270 269 269 269 270 270 270 270 270 270 270 270 270 270 270 270 270 269 269 269 269 269 269 269 269 269 270 270 271 272 272 273 273 274 275 275 276 276 277 277 277 278 278 278 278 278 278 278 278 279 280 280 280 280 280 280 280 280
270 270 270 270 270 270 270 271 271 271 271 271 271 271 271 271 271 271 271 271 270 270 270 270 270 270 270 270 269 269 269 270 270 270 270 270 270 270 270 270 270 270 270 269 269 269 269 269 269 269 269 269 269 269 270 270 271 272 272 272 273 274 275 275 276 276 277 278 278 278 279 279 279 279 279 279 279 280 280 280 280 280 281 280 280
270 270 270 270 270 270 270 270 271 271 271 271 271 271 271 271 271 271 270 270 270 270 270 270 270 270 270 270 269 269 270 270 270 270 270 270 270 270 270 270 270 270 270 269 269 269 269 269 269 269 269 269 269 269 269 269 270 271 272 272 273 274 274 274 275 276 277 277 278 278 279 279 279 279 279 280 280 280 280 280 280 280 280 280 280
270 270 269 269 269 269 270 270 270 270 270 270 270 270 270 270 270 270 270 270 270 270 270 270 270 270 270 270 270 270 270 270 270 270 270 270 270 270 270 270 270 270 270 270 270 270 269 269 269 269 269 269 269 269 269 269 270 270 271 272 272 273 274 274 275 275 275 276 277 278 278 279 279 279 279 279 279 279 279 280 280 280 280 280 279
270 269 269 269 269 269 269 270 270 270 270 270 270 270 270 270 270 270 270 270 270 270 269 269 269 269 269 269 269 269 269 269 270 270 270 270 270 270 270 270 270 270 270 270 270 270 270 270 270 269 269 269 269 269 269 269 270 270 271 271 272 272 273 274 274 274 274 275 275 276 277 277 278 278 279 278 278 278 278 278 278 278 278 278 278
269 269 269 269 269 269 269 269 269 270 269 269 269 269 269 269 269 269 269 269 269 269 269 269 269 269 269 269 269 269 269 269 269 269 269 269 269 270 270 270 270 270 270 270 270 270 270 270 270 270 270 270 270 269 269 269 269 270 270 271 271 272 272 273 273 274 274 275 275 275 275 276 276 277 277 277 277 277 277 277 277 277 277 277 277
269 269 269 269 269 269 269 269 269 269 269 269 269 269 269 269 269 269 269 269 269 269 269 269 269 269 268 268 268 269 269 269 269 269 269 269 269 269 269 269 270 270 270 270 270 270 270 270 270 270 270 270 270 270 270 269 269 270 270 271 271 271 272 272 273 273 274 274 274 274 275 275 275 276 276 276 276 276 276 276 276 276 276 276 276
269 269 269 269 269 269 269 268 268 269 269 269 269 269 269 269 269 269 269 269 269 269 269 269 269 269 268 268 268 269 269 269 269 268 268 269 269 269 269 269 269 269 270 270 270 270 270 270 271 271 271 271 271 271 270 270 269 269 270 271 271 271 271 272 272 272 273 273 273 273 274 274 274 274 274 275 275 275 275 275 275 275 275 275 275
269 269 269 269 269 269 269 268 268 268 268 269 269 269 269 269 269 269 268 268 268 268 268 268 268 268 269 269 269 269 269 269 269 269 269 269 269 269 269 269 269 269 269 269 270 270 270 270 270 271 271 271 271 270 270 270 269 269 269 270 271 271 271 271 271 271 272 272 272 272 273 273 273 273 274 274 274 274 274 274 274 274 274 274 274
268 268 268 268 268 269 269 268 268 268 268 268 268 269 269 269 269 268 268 268 268 268 268 268 268 268 269 269 269 269 269 269 269 269 269 269 269 269 269 269 270 270 270 270 270 270 270 270 270 270 271 271 271 270 270 270 270 269 269 270 271 271 271 272 271 271 271 271 272 272 272 272 272 272 273 273 273 273 273 273 273 273 273 273 273
268 268 268 268 268 268 268 268 268 268 268 268 268 268 269 269 269 268 268 268 268 268 268 268 268 268 269 269 269 269 269 269 269 269 269 269 269 269 269 269 269 270 270 270 270 270 270 270 270 270 270 270 271 271 270 270 270 270 269 270 270 271 271 271 272 271 271 271 271 271 271 272 272 272 272 272 272 272 272 272 272 272 272 272 272
Wind_Speed
2 4 6 7 9 10 11 12 13 14 14 15 16 17 17 18 19 20 20 21 22 22 23 23 24 25 26 26 26 27 27 27 27 28 28 29 29 29 29 30 30 31 31 31 31 31 32 32 33 32 31 33 33 32 32 30 29 29 28 28 29 29 31 35 42 51 53 49 50 52 51 50 52 52 51 50 48 46 45 45 44 43 43 44 43
5 7 9 10 11 12 14 15 17 18 19 20 21 21 21 21 21 21 21 21 22 23 24 24 25 26 27 27 28 28 29 30 30 31 32 33 33 33 33 34 34 34 34 35 35 34 35 36 37 36 35 35 36 36 35 34 33 34 32 31 32 30 29 32 38 46 51 49 46 48 49 49 51 52 50 50 50 48 48 48 47 46 46 46 46
8 10 12 14 15 17 18 20 22 23 24 25 27 27 27 26 26 25 24 23 23 23 25 26 26 27 28 28 29 30 31 32 32 34 35 37 38 38 39 39 39 40 40 40 40 39 40 41 41 40 40 40 40 39 38 38 37 37 37 35 35 34 32 31 34 40 47 48 45 44 45 46 49 50 49 49 49 48 49 50 49 48 48 47 48
10 12 14 16 18 19 21 23 24 26 27 28 30 30 30 29 29 29 29 28 28 28 28 29 30 30 31 31 32 32 33 34 35 36 37 39 41 42 43 44 44 45 45 45 46 45 46 46 46 45 45 45 45 45 43 42 40 40 40 39 38 38 36 34 35 39 43 47 46 43 42 43 45 47 47 48 48 47 48 49 49 49 50 49 49
11 13 15 16 18 20 22 24 25 27 29 31 32 32 30 30 29 29 30 30 31 31 32 33 34 35 36 37 37 38 38 39 39 40 41 42 44 45 46 47 48 49 50 50 50 51 51 51 50 50 49 49 50 50 48 47 45 44 43 43 41 40 40 38 38 39 42 46 47 45 42 42 43 43 44 46 47 48 48 49 49 49 49 49 50
12 14 16 18 20 22 24 26 27 29 31 32 33 32 31 30 30 29 30 30 31 32 33 34 36 37 39 40 41 42 43 44 44 45 45 46 47 47 48 49 50 51 52 53 54 55 55 55 55 53 52 52 52 52 51 50 49 48 47 46 44 42 42 42 41 41 43 46 48 47 45 44 43 43 42 42 45 47 48 49 48 48 48 49 51
15 17 19 21 22 24 25 27 29 31 33 34 34 33 32 32 31 30 30 31 32 33 34 35 36 38 40 41 43 44 45 46 47 48 48 49 49 50 51 51 53 53 54 54 55 56 57 57 58 57 56 54 54 53 52 51 51 50 49 48 46 44 43 44 43 43 44 47 49 49 48 46 44 44 43 40 41 44 46 46 48 48 48 50 51
18 19 21 22 23 25 26 28 30 32 34 34 33 33 33 32 32 32 32 33 34 35 37 38 40 41 42 43 44 45 46 47 48 48 49 50 50 51 52 53 54 55 56 57 57 57 58 58 58 59 58 58 56 53 52 50 49 49 49 48 46 45 45 45 45 45 45 47 49 50 49 47 46 45 44 41 42 44 43 43 46 48 49 50 51
19 19 21 22 24 26 27 29 31 32 32 32 32 32 32 32 32 33 34 35 37 38 40 42 43 43 44 44 45 45 46 47 47 48 49 50 51 53 54 55 56 57 58 59 59 59 59 59 59 58 58 59 58 56 53 50 47 47 48 47 44 43 44 45 45 45 46 47 50 51 50 49 47 45 43 42 43 43 41 40 43 46 46 47 50
18 20 22 23 25 27 28 30 31 31 31 32 31 31 31 32 33 34 36 37 39 41 42 43 44 45 45 46 46 47 47 48 48 49 50 51 52 54 55 56 57 58 59 60 61 61 61 61 60 59 58 58 58 58 56 53 49 47 46 45 43 43 43 44 45 46 46 48 49 50 49 50 50 46 44 43 42 41 40 39 41 43 42 44 49
20 22 24 25 26 27 28 30 30 31 31 30 30 30 31 33 34 35 37 39 41 42 43 44 44 45 46 47 47 48 49 49 50 51 52 52 53 54 56 58 59 59 60 60 61 62 61 61 60 60 59 58 58 58 57 56 54 50 47 45 43 42 42 43 45 46 46 48 50 50 50 51 53 49 45 43 41 40 39 39 40 41 40 42 46
22 24 24 25 26 27 29 30 30 30 29 29 30 32 33 34 35 37 39 40 42 42 43 44 44 45 46 47 48 49 50 51 52 53 53 54 53 53 55 57 58 59 58 58 58 59 59 59 58 57 57 56 55 55 55 56 55 53 49 45 42 40 40 42 44 45 46 47 50 52 53 53 54 52 46 43 41 40 39 39 39 40 41 42 44
23 24 24 25 26 27 29 29 29 29 29 30 32 33 35 36 37 39 40 41 42 43 43 44 44 45 46 47 48 50 51 52 53 53 53 53 52 50 52 53 54 54 55 54 53 54 53 53 53 54 54 53 51 51 52 53 53 53 51 48 46 44 43 42 43 45 46 48 49 53 55 54 54 54 49 43 41 40 40 40 40 40 41 42 44
23 23 24 26 27 28 29 29 29 29 30 32 34 34 35 37 38 40 41 42 43 43 44 44 45 45 46 48 49 51 52 53 53 52 51 50 48 46 47 49 50 50 51 50 50 50 49 48 49 50 50 49 47 46 46 46 48 50 51 52 52 51 50 49 48 47 47 48 49 53 55 54 54 55 52 46 43 42 42 42 42 41 42 44 45
24 25 26 27 28 29 29 29 30 31 32 33 34 35 36 38 39 40 41 42 43 44 44 45 45 46 47 48 50 51 52 52 51 49 48 46 44 43 44 46 47 48 48 47 46 46 45 44 44 45 45 44 42 41 40 40 40 41 43 46 48 49 50 50 49 48 47 47 49 51 55 55 54 54 53 50 47 47 45 44 43 43 44 44 44
25 26 27 29 29 30 29 30 31 32 33 34 34 36 37 38 39 41 41 42 43 44 44 45 46 47 48 49 50 52 51 50 48 46 44 43 42 42 43 44 44 45 45 43 41 40 39 37 36 36 37 37 35 34 34 35 37 39 41 43 44 45 46 47 45 44 43 44 46 48 51 54 54 54 54 51 49 47 46 45 44 43 43 44 45
27 28 29 30 30 30 30 30 32 33 33 34 35 36 37 39 40 41 42 43 44 44 45 46 47 48 48 49 49 51 51 47 44 43 43 41 40 40 40 40 41 41 40 38 36 36 37 34 32 32 34 34 32 30 29 30 34 38 41 43 45 48 51 51 49 45 43 42 44 45 47 48 48 48 49 50 49 47 45 46 46 44 44 44 45
28 29 30 30 30 30 30 31 33 33 34 34 35 37 38 39 40 40 42 43 44 45 45 46 47 48 48 48 47 48 48 45 42 42 41 39 36 35 35 36 36 36 35 34 33 34 34 32 31 33 36 35 33 31 29 30 32 35 37 39 42 46 49 49 48 46 44 43 44 45 45 46 46 46 46 48 49 47 46 48 48 45 45 45 46
29 30 31 30 30 30 31 32 33 34 34 35 36 37 38 39 40 40 42 43 44 45 46 47 48 47 46 46 45 44 44 42 40 40 39 35 31 29 30 32 33 34 34 34 34 33 33 33 33 32 32 31 30 29 29 29 31 34 35 37 41 44 43 42 42 44 45 45 46 47 48 48 49 50 51 51 51 49 48 49 48 47 47 48 47
30 31 32 30 30 31 32 33 33 33 34 35 36 38 38 39 40 41 42 43 44 45 46 46 47 47 45 45 43 41 40 40 39 37 34 30 26 25 27 31 34 35 35 35 36 36 37 38 35 31 29 30 30 31 30 30 31 33 35 37 42 43 41 39 39 40 42 45 47 48 49 49 48 47 47 48 49 49 49 49 49 49 49 49 48
31 32 32 30 31 32 32 32 33 33 34 35 37 38 38 38 40 41 42 43 44 45 46 45 46 46 44 42 41 38 36 37 37 34 30 27 23 23 27 31 33 35 36 37 38 39 38 36 34 32 31 32 32 32 31 31 31 33 34 37 39 40 39 40 41 41 42 45 45 45 47 49 51 50 48 46 45 46 46 47 49 49 49 50 50
32 32 31 31 31 32 32 32 33 34 34 35 37 38 37 38 39 40 42 43 44 45 45 44 44 44 43 40 38 36 33 33 33 30 26 24 22 22 26 30 30 32 35 36 36 37 36 35 35 34 32 32 32 32 32 32 32 34 35 36 36 36 37 39 42 43 45 47 48 48 47 47 49 52 53 54 54 52 50 50 51 51 51 51 51
32 32 31 32 32 32 32 33 33 34 35 35 36 37 37 37 39 40 41 42 43 44 44 43 42 43 42 40 36 33 31 31 30 27 24 23 22 21 23 27 28 29 32 34 36 36 37 37 36 35 33 32 33 32 33 33 33 34 34 34 36 36 36 38 40 42 44 45 47 50 50 48 46 46 47 50 53 54 53 53 52 51 51 51 50
32 31 31 32 32 32 33 34 34 34 34 35 36 37 37 37 38 39 40 41 42 43 42 41 40 41 41 40 36 32 30 30 28 26 25 25 23 21 22 24 27 28 30 33 34 36 37 37 36 35 34 34 34 34 33 33 33 34 34 34 34 35 35 37 39 41 44 46 47 50 52 52 50 49 46 44 44 45 46 48 49 50 50 50 49
31 31 31 32 32 33 34 34 34 35 34 35 36 36 36 37 38 39 39 39 40 40 40 38 38 38 39 39 37 33 30 28 27 25 27 28 26 24 24 26 27 28 31 33 35 35 36 35 34 34 34 34 35 35 34 34 34 34 33 33 33 35 36 38 40 42 44 47 48 50 53 54 54 54 52 49 46 44 44 44 46 47 47 48 48
31 31 31 32 32 33 35 35 35 35 34 34 35 35 36 36 38 38 38 38 38 38 37 36 36 36 36 36 36 34 32 31 30 29 30 30 29 29 31 32 32 33 35 36 35 35 35 34 34 34 34 34 34 35 35 35 35 35 35 35 35 37 38 40 41 42 43 45 46 48 51 52 52 53 53 52 51 49 46 44 45 46 46 46 46
31 31 31 32 32 34 35 36 36 35 35 34 34 34 34 35 36 37 37 36 36 36 35 35 34 35 36 35 36 36 36 36 36 35 33 33 34 35 37 38 38 39 39 38 37 38 39 38 37 35 35 35 35 35 37 38 38 38 39 39 39 40 40 41 41 41 43 44 46 47 48 48 47 48 50 51 52 52 49 46 46 46 46 45 45
31 31 31 32 33 34 35 36 36 35 35 34 33 34 33 33 35 36 35 34 34 35 34 33 33 34 35 35 36 37 37 38 38 36 35 34 35 36 37 38 39 39 39 38 38 40 41 39 37 37 38 38 38 39 41 42 41 41 42 42 43 43 43 42 42 42 43 44 45 46 47 46 46 46 45 47 50 52 51 48 47 47 46 44 43
31 31 31 32 33 34 35 35 34 34 34 34 33 33 32 32 33 35 34 31 30 31 31 30 31 31 32 33 33 35 37 37 35 34 33 33 33 34 35 35 34 33 33 34 36 38 39 38 38 39 40 41 41 43 45 45 45 46 46 47 46 45 44 43 43 44 43 43 44 45 45 45 45 44 43 43 46 50 51 49 47 47 46 44 43
31 31 31 32 33 34 34 33 33 32 33 34 34 34 31 29 29 32 33 30 26 26 26 26 26 26 28 28 28 30 33 34 33 32 32 32 32 33 32 30 28 29 30 32 34 36 38 39 40 41 42 43 44 45 45 45 46 47 47 46 45 45 44 43 43 44 44 43 43 44 43 44 44 43 43 43 44 45 47 47 46 45 45 44 42
31 31 32 32 33 33 33 32 31 31 32 33 34 34 34 31 27 27 29 29 26 24 24 23 22 21 23 24 25 27 28 28 29 30 31 30 31 31 29 27 27 29 30 32 34 36 38 40 40 40 40 41 41 41 41 41 42 44 44 45 45 45 45 44 43 43 43 42 42 42 42 42 42 42 42 43 42 42 43 44 45 45 45 43 40
31 31 31 31 31 31 31 30 30 31 31 32 32 33 34 34 31 27 26 26 26 25 24 22 21 20 20 21 23 25 25 25 26 27 28 28 28 29 28 27 28 30 31 32 34 35 35 35 35 34 35 35 35 35 36 38 41 43 44 45 46 45 45 45 44 43 42 41 41 41 41 40 40 40 41 41 41 40 40 41 41 42 43 41 38
30 30 30 30 29 29 28 29 29 30 30 31 31 31 31 33 33 31 29 27 26 24 22 21 21 20 19 19 20 21 22 23 24 24 24 26 27 27 27 27 28 30 31 31 30 29 28 28 29 30 31 32 32 33 34 37 40 42 43 44 45 44 43 42 41 40 41 40 40 40 40 39 39 38 39 40 40 39 39 38 38 38 37 36 36
28 28 28 28 28 27 26 27 28 28 29 29 29 29 29 29 30 31 31 30 30 28 24 22 20 19 18 17 17 19 20 20 21 21 23 25 26 26 27 26 25 25 26 25 24 24 24 26 27 29 30 30 31 32 33 36 38 40 41 42 42 41 40 39 39 39 39 38 38 38 38 38 37 37 37 37 38 38 38 38 38 39 37 37 36
26 26 26 26 26 26 25 25 26 27 27 27 27 27 27 27 28 29 29 29 29 29 27 23 22 22 21 19 18 19 19 19 20 22 24 25 25 26 27 26 24 23 23 23 23 23 24 26 28 28 28 29 29 30 32 35 37 38 39 40 40 39 37 37 37 37 37 37 36 36 35 35 34 33 33 35 36 38 37 35 38 39 38 36 35
25 24 24 24 24 24 24 24 24 25 25 25 25 25 25 26 26 26 26 25 25 25 25 23 21 21 21 21 21 21 21 22 23 24 24 23 24 24 25 25 25 25 25 25 25 24 25 26 27 27 27 28 28 29 31 33 35 36 36 38 39 38 36 35 35 35 34 34 34 33 32 31 29 29 29 32 34 35 33 33 34 32 31 31 30
23 22 22 22 22 23 23 23 23 23 23 23 23 23 24 24 24 23 23 23 23 22 22 22 22 20 20 21 22 22 22 24 24 24 23 22 22 23 23 23 24 25 25 25 25 25 25 26 26 26 26 27 28 29 29 31 33 34 35 35 36 35 33 32 33 33 32 31 31 30 29 27 25 26 27 28 29 28 25 30 32 31 30 31 31
21 21 21 21 21 21 22 22 21 21 21 21 21 21 21 21 21 21 21 20 20 20 19 20 21 21 22 22 23 23 23 25 25 25 25 25 25 25 25 25 25 25 25 25 25 25 26 26 26 26 26 26 27 28 29 30 31 32 33 33 33 32 31 30 31 31 30 28 26 25 24 23 22 23 25 26 25 22 18 19 24 27 28 28 28
19 19 19 20 20 20 20 20 20 20 19 19 19 19 19 19 19 19 19 18 18 18 18 18 19 20 21 22 23 23 25 26 26 27 27 27 27 28 28 28 28 28 27 27 26 26 27 27 26 26 25 25 26 26 28 29 30 30 31 32 32 32 30 29 29 29 29 27 24 20 19 19 19 21 23 22 20 17 16 15 17 20 22 24 25
17 17 18 18 18 18 19 19 18 18 18 18 18 17 18 18 17 17 17 17 17 17 17 18 18 18 19 20 21 22 23 24 25 25 26 26 27 28 28 29 30 29 29 28 28 27 27 27 27 26 25 25 26 27 27 28 28 28 29 30 30 29 28 26 25 25 26 27 25 21 18 17 18 19 20 19 17 16 16 17 18 18 18 20 22
16 16 16 16 16 17 17 17 17 16 16 17 17 16 16 16 16 16 16 16 16 16 16 16 16 17 17 18 18 18 20 21 22 23 24 24 25 26 27 28 29 29 29 28 28 27 27 26 26 26 26 26 27 27 27 27 27 27 27 28 28 27 25 24 22 20 20 21 23 21 19 17 16 17 19 19 19 20 19 19 20 21 20 19 20
16 15 15 15 15 16 16 15 15 15 15 15 15 15 15 15 15 15 15 15 15 16 16 16 15 15 16 16 16 16 18 20 21 22 22 23 23 24 25 25 26 27 27 27 27 26 26 25 24 25 26 27 28 28 29 28 27 26 26 26 27 27 25 24 22 19 17 16 16 18 17 16 15 16 17 18 19 21 21 20 20 21 20 19 20
15 14 14 14 14 15 15 14 14 14 14 14 14 14 14 14 14 13 13 14 14 15 15 15 15 15 15 15 16 16 17 19 20 21 22 22 22 23 23 24 24 25 25 25 25 24 24 24 23 23 24 26 27 29 30 29 28 26 25 25 25 24 24 24 22 20 18 15 14 14 15 15 15 16 17 18 20 22 22 20 19 20 21 21 20
14 13 13 13 14 14 13 13 13 13 13 13 13 13 13 13 13 12 12 13 13 14 14 15 15 15 15 15 16 16 17 19 20 20 21 22 22 22 23 23 23 24 24 24 25 24 24 24 24 23 23 24 25 28 30 30 28 26 25 25 24 23 23 23 22 21 20 17 14 12 12 11 12 13 14 15 17 19 20 19 19 20 20 19 18
13 13 12 13 13 13 12 12 12 13 13 12 12 12 12 12 12 12 12 12 12 12 13 13 14 14 15 15 16 17 18 18 19 20 20 21 22 22 22 22 23 23 24 24 24 24 25 26 26 25 25 24 25 27 30 31 30 28 26 25 24 23 23 22 20 19 19 17 15 13 12 10 9 8 8 9 10 12 14 14 15 15 14 14 14
13 13 13 13 13 12 12 11 11 12 12 11 11 11 11 11 11 11 11 12 11 11 12 12 12 13 14 15 16 17 17 18 18 19 19 20 21 21 22 22 22 22 23 23 24 24 24 25 26 26 26 26 26 27 29 31 32 30 27 25 24 24 22 21 19 17 16 15 15 14 13 12 10 8 7 6 6 6 7 7 7 8 8 9 9
13 13 13 13 13 12 11 11 11 11 12 11 11 11 11 11 11 11 11 11 11 11 11 12 12 13 14 15 15 16 17 17 18 18 19 19 20 21 21 22 22 22 23 23 23 24 24 24 24 25 26 27 27 28 29 30 32 32 30 28 26 24 22 21 19 17 16 15 13 13 12 11 10 9 8 6 5 4 3 2 2 3 3 4 5
13 13 13 13 13 12 12 12 11 11 11 11 11 11 11 11 11 11 11 11 11 11 11 12 12 13 13 14 15 16 16 17 18 18 18 19 20 20 21 22 23 23 23 24 24 25 25 25 25 25 25 26 27 28 28 29 31 32 32 30 28 26 23 22 20 19 18 16 14 13 13 12 10 10 9 8 7 6 5 3 2 0 1 2 4
13 13 13 14 14 13 13 12 12 11 11 11 11 11 11 11 11 11 11 11 11 11 12 12 13 13 14 14 15 15 16 17 17 18 18 19 19 20 20 21 22 23 24 24 25 25 26 26 26 25 25 25 25 26 27 28 29 31 31 31 29 27 26 24 23 22 21 19 18 16 15 14 12 11 11 10 9 8 7 5 4 2 2 3 5
13 13 13 14 14 13 13 13 12 12 12 11 11 12 12 12 12 12 12 12 12 12 12 13 13 14 14 15 15 16 17 17 17 18 18 19 19 19 20 20 21 22 23 24 24 25 25 25 26 26 25 25 24 25 26 26 27 28 29 29 29 29 28 27 26 25 23 22 20 19 17 16 15 14 13 13 11 10 8 7 6 4 4 4 5
13 13 13 14 14 14 14 14 13 13 13 12 13 13 13 13 13 13 13 13 13 13 13 14 14 14 15 15 16 17 17 18 18 18 19 19 19 20 20 20 20 21 21 22 23 23 24 24 24 25 25 25 24 24 24 24 25 25 26 27 28 28 29 28 28 26 25 24 22 20 19 17 17 16 16 15 13 12 10 9 7 6 5 5 5
Wind_Direction
8 353 350 349 344 341 338 334 332 330 329 328 325 324 321 318 315 312 312 312 311 310 310 310 310 309 310 310 311 312 312 312 313 312 311 311 311 311 310 309 308 307 306 304 304 304 303 302 301 301 302 302 300 300 299 298 297 295 294 293 291 288 283 278 275 277 279 280 279 280 280 279 278 277 275 274 273 270 268 266 263 260 258 256 255
324 328 331 334 333 333 332 331 329 328 329 329 328 327 324 321 318 315 313 312 311 312 311 310 309 308 308 309 309 309 310 310 310 310 310 309 308 308 308 308 306 305 305 303 303 302 301 300 300 299 299 298 297 297 296 296 296 295 294 292 291 290 288 285 283 282 283 283 282 282 282 281 280 278 277 276 275 273 270 268 265 262 260 258 257
325 327 329 331 331 331 331 330 329 328 328 329 328 327 326 323 321 319 318 317 316 316 315 314 312 311 310 309 308 308 307 307 308 308 308 308 307 307 307 306 305 304 303 302 301 301 300 298 298 298 298 296 295 294 294 293 293 292 292 291 290 289 288 287 287 286 287 287 287 285 284 283 281 281 280 278 276 274 271 269 267 264 261 259 257
329 329 329 329 326 326 326 326 325 324 324 326 326 325 323 321 321 320 319 319 319 318 317 316 315 313 312 311 310 309 308 307 306 306 306 306 305 305 304 304 303 303 302 301 300 300 299 297 297 296 295 294 293 293 292 291 290 290 289 288 288 288 287 286 285 286 288 289 288 287 287 286 283 282 281 279 277 275 272 270 267 265 262 260 258
321 320 319 318 317 316 317 317 317 317 317 319 320 319 318 317 317 317 316 316 316 316 316 315 315 314 314 313 312 311 310 309 307 306 304 303 302 302 301 301 300 300 299 299 299 298 297 296 295 295 294 292 292 291 290 289 288 287 286 285 285 285 286 285 284 284 285 287 288 289 288 287 285 284 282 280 278 276 274 271 268 266 264 261 259
306 308 307 307 307 308 308 308 309 310 311 313 314 314 314 314 314 314 313 313 313 312 312 312 312 312 312 312 311 310 309 308 307 305 303 302 301 299 298 297 297 296 295 295 295 295 295 295 294 293 292 291 290 289 288 287 286 285 284 283 282 282 282 281 281 282 282 283 285 287 288 287 286 285 284 282 281 278 276 274 271 267 265 262 260
295 297 297 298 298 299 300 302 303 305 306 307 308 309 310 311 311 311 310 310 310 309 309 309 309 309 308 308 307 307 306 306 305 304 303 302 301 299 298 296 295 293 292 291 291 291 291 291 292 292 291 290 289 288 287 286 284 283 282 281 281 280 279 278 278 279 279 280 282 283 285 286 286 285 285 285 282 279 276 274 273 270 267 264 262
287 288 290 291 293 294 295 296 297 299 300 303 305 306 308 308 308 308 308 308 308 308 308 308 307 306 306 305 305 305 304 304 304 304 303 303 302 300 298 296 295 293 292 290 289 288 287 287 287 287 288 289 288 287 286 285 285 283 281 281 280 279 278 276 276 275 276 277 278 280 281 282 282 283 284 283 281 280 279 277 276 275 273 270 267
282 286 288 290 291 292 293 293 294 296 298 300 302 303 304 304 305 305 306 307 307 308 307 307 306 306 305 305 304 304 304 304 304 304 303 302 301 300 298 297 295 294 292 291 289 288 287 286 285 284 284 285 286 286 286 284 283 282 281 280 279 279 278 276 275 274 274 275 275 277 278 279 278 279 279 279 279 282 284 281 278 279 276 274 272
284 289 292 293 294 295 295 296 296 298 299 300 300 300 301 302 303 304 305 306 307 307 307 306 307 307 306 306 306 305 305 304 304 303 302 301 300 298 297 295 294 293 292 291 290 288 287 286 285 283 282 281 281 281 283 283 282 280 280 279 278 277 277 276 274 273 273 273 273 274 275 275 275 275 275 277 279 281 281 279 279 281 278 274 273
291 295 297 298 299 299 298 298 297 298 298 298 298 298 299 301 302 303 305 305 305 306 306 306 307 307 307 307 306 306 305 305 305 304 303 301 300 298 297 295 294 292 291 290 289 288 286 285 284 283 282 280 278 277 277 278 279 279 278 277 276 274 272 272 272 272 271 271 271 272 273 273 273 273 273 275 277 277 278 278 279 279 275 271 272
295 297 297 299 300 300 300 298 298 297 296 297 297 299 300 302 303 304 305 305 305 306 307 307 307 307 307 306 306 306 306 305 305 304 303 302 301 300 299 297 295 293 292 290 289 288 287 286 285 283 281 280 279 278 276 275 276 277 278 277 276 273 269 267 267 267 268 269 269 269 269 270 271 272 272 273 273 274 276 276 275 274 272 268 269
295 296 298 301 302 302 301 299 297 296 296 297 299 300 302 303 304 305 306 306 307 307 308 308 307 307 306 306 306 306 306 306 305 305 304 303 303 301 299 297 295 294 293 292 291 291 290 289 287 285 283 282 280 279 278 276 275 275 275 275 273 271 269 267 265 265 265 265 266 267 267 268 269 269 270 271 272 273 273 272 272 272 269 267 269
295 297 300 303 304 303 301 299 297 297 297 299 300 302 303 304 306 307 307 308 308 308 308 308 307 307 307 307 307 307 307 307 307 307 306 306 304 302 299 297 295 294 294 293 293 292 291 290 288 287 286 284 282 282 282 282 280 278 277 276 274 272 271 270 269 267 265 263 263 264 265 266 267 268 269 270 270 270 269 270 270 271 271 272 276
297 299 301 304 304 303 301 298 297 297 298 300 301 303 304 306 307 308 309 309 309 309 308 308 308 308 308 309 308 308 308 309 309 309 308 307 306 303 299 297 295 295 294 293 294 294 294 294 293 292 291 289 286 284 283 282 281 281 280 278 277 276 275 274 272 271 269 266 264 264 265 265 265 266 267 268 268 268 269 270 270 271 271 272 273
298 300 302 304 303 301 299 297 296 298 300 301 302 304 306 307 309 309 309 309 309 309 309 309 309 309 309 310 309 309 310 310 311 311 310 309 306 303 300 297 295 294 294 295 296 296 297 297 297 298 298 298 296 292 287 282 279 277 276 275 275 274 272 270 270 271 272 271 270 268 268 268 266 265 266 266 266 267 269 270 269 268 266 265 264
299 301 302 302 302 300 298 297 298 299 301 302 304 306 307 308 309 309 309 309 309 309 309 310 310 310 310 311 311 310 311 312 313 313 311 309 306 303 299 297 295 295 295 296 296 295 295 295 295 295 294 294 295 294 293 290 284 279 277 275 275 274 271 269 270 272 273 272 270 269 268 268 268 267 266 264 263 264 265 266 265 263 260 259 259
299 301 301 301 301 299 298 299 300 301 303 304 306 307 308 308 309 309 309 309 310 310 310 311 311 311 311 312 312 312 312 315 315 313 310 308 305 302 300 298 297 297 297 296 295 295 295 296 295 294 294 295 294 292 291 291 288 286 284 283 280 278 276 277 279 281 278 273 270 268 267 266 265 264 264 263 262 260 259 259 260 259 257 255 256
300 300 301 301 300 299 300 301 302 303 305 306 307 307 308 309 309 310 310 310 310 310 311 311 311 312 312 312 313 313 314 315 315 312 309 308 307 304 302 300 298 297 297 296 296 295 297 301 301 296 295 296 294 292 291 290 287 286 286 286 285 284 285 286 285 283 281 278 274 273 271 270 269 269 268 267 264 260 256 255 256 254 254 253 253
299 300 300 301 300 301 302 303 304 305 306 307 307 307 308 309 310 310 310 310 310 311 311 311 311 312 312 313 313 314 315 315 313 311 309 309 310 309 304 301 299 299 300 300 300 302 306 309 306 297 291 291 290 289 290 288 286 285 284 283 282 283 287 289 286 284 283 281 279 277 274 272 274 274 272 270 267 263 258 255 254 252 251 251 251
299 300 301 301 302 303 304 304 305 306 306 306 307 308 309 310 310 311 311 311 311 311 311 311 312 312 312 313 314 314 315 313 310 309 309 312 317 313 304 301 301 302 303 303 304 305 306 304 302 297 292 291 290 290 290 289 288 287 286 285 284 285 287 287 285 284 283 281 280 280 276 272 270 270 269 268 266 265 262 259 256 254 251 249 248
299 300 301 302 303 305 305 305 305 306 306 306 307 308 310 310 311 311 311 311 311 311 311 312 312 312 312 313 314 313 313 309 305 307 313 321 325 319 306 301 301 301 301 301 302 302 301 299 301 303 299 292 290 291 290 289 288 287 286 286 287 288 288 287 286 285 282 280 280 279 278 275 272 270 268 267 266 265 265 264 261 258 255 251 248
299 300 301 303 304 305 305 305 306 306 306 307 308 309 311 311 311 311 311 311 310 311 312 313 312 312 312 313 313 312 309 304 302 308 320 329 331 327 312 302 299 299 299 299 299 299 300 302 305 309 307 301 297 297 296 294 292 290 289 288 287 287 286 285 285 285 284 281 278 277 276 275 275 273 272 271 270 268 266 265 263 261 258 256 253
298 300 302 304 305 305 305 306 306 307 308 308 309 310 311 311 311 311 311 311 311 312 313 313 313 313 313 312 312 311 306 302 303 313 325 330 330 329 323 312 305 302 299 298 299 300 303 305 307 308 305 301 298 295 294 293 291 289 289 288 288 287 285 284 284 286 287 284 280 277 274 272 273 272 271 271 274 273 269 266 264 262 260 258 256
298 300 302 304 305 305 306 306 307 308 309 309 309 310 311 311 311 311 311 312 312 312 313 314 314 314 313 313 313 311 307 305 309 318 325 326 326 327 328 323 318 312 307 305 306 306 307 308 308 304 300 299 298 297 297 297 295 293 292 290 287 285 284 284 285 285 285 284 282 280 276 273 272 271 270 270 272 273 272 270 264 260 259 259 257
299 301 303 304 305 306 306 307 308 308 309 310 310 310 311 312 312 312 312 313 313 313 314 315 315 315 315 316 316 315 314 315 319 322 322 323 325 328 328 324 320 317 314 311 309 309 309 309 309 308 306 305 302 300 299 298 296 294 293 292 291 290 289 289 288 287 285 284 284 283 280 278 275 273 271 270 270 269 269 269 265 259 256 256 255
299 302 304 305 306 306 307 307 308 309 309 309 309 309 311 313 312 312 313 314 314 314 316 317 318 319 320 321 319 318 318 318 318 318 320 322 325 326 323 319 317 315 314 313 313 313 314 314 313 313 311 308 303 299 299 299 298 297 298 298 298 297 296 294 291 288 286 285 284 283 282 282 280 276 272 269 268 267 266 266 265 260 255 253 252
300 302 304 306 306 306 307 307 308 308 309 309 308 310 312 313 312 311 313 316 317 318 320 322 322 322 320 319 317 315 315 314 313 315 317 319 318 317 314 312 312 312 312 313 314 314 313 313 313 312 310 308 306 304 303 303 302 301 300 300 299 297 296 294 291 287 285 284 284 283 283 282 280 278 275 271 268 266 264 265 265 261 253 248 247
301 303 304 306 306 306 306 306 307 308 308 308 308 310 313 314 314 312 314 317 319 320 322 322 320 316 313 311 311 310 309 309 310 311 311 310 309 309 308 307 308 308 308 309 309 307 306 306 306 306 306 305 305 304 304 304 304 302 301 300 298 297 295 292 289 287 286 285 284 283 283 282 279 278 277 274 269 266 264 264 265 260 249 242 241
302 303 305 306 306 305 305 305 307 308 308 308 309 310 312 314 314 313 313 316 319 320 320 319 316 310 306 304 305 304 302 304 307 308 308 308 308 307 306 306 307 306 305 305 304 301 299 300 300 301 303 303 303 304 304 305 305 305 304 303 301 299 296 292 288 286 284 284 283 282 282 280 278 277 277 275 272 268 264 264 264 257 244 236 235
301 303 305 305 304 304 304 305 307 308 308 309 311 311 312 312 312 312 313 316 320 320 321 321 317 309 304 304 306 304 303 306 310 309 309 310 309 309 310 311 310 305 301 299 297 296 296 298 300 301 302 302 302 304 307 310 312 312 311 309 307 304 300 296 292 288 285 283 282 282 281 280 278 277 276 275 275 272 267 265 263 253 238 232 233
301 303 303 303 302 302 303 305 307 307 308 310 312 313 313 313 313 313 313 317 321 323 323 323 318 309 305 307 310 311 312 313 312 310 309 311 313 315 314 309 300 295 294 294 295 297 299 300 301 303 304 305 308 313 317 320 320 318 314 311 309 306 302 298 295 291 287 284 282 281 281 279 277 276 275 275 277 276 272 268 258 244 232 231 234
301 302 302 301 300 301 303 305 306 307 309 311 313 314 315 316 317 318 317 317 320 325 328 326 318 311 310 312 314 315 316 315 313 314 317 319 320 316 309 302 296 295 296 297 298 300 302 303 305 308 311 314 318 321 323 323 323 321 318 314 312 310 307 304 299 294 288 283 281 280 279 278 276 274 275 276 276 276 276 269 254 238 232 233 234
300 300 300 299 299 301 303 304 306 308 310 312 313 314 315 317 319 322 323 322 322 325 328 329 327 326 325 325 324 322 320 320 325 329 328 322 316 310 306 305 306 304 301 301 302 305 308 310 312 314 317 319 321 323 324 325 326 326 324 322 319 317 314 310 305 299 293 287 283 281 279 278 275 273 274 275 276 279 280 269 250 238 236 235 233
298 298 298 298 298 301 303 304 306 308 310 312 314 314 316 318 320 323 325 327 327 326 327 330 337 342 344 344 342 337 336 339 341 337 330 322 317 313 311 312 314 312 309 309 313 315 316 316 316 318 320 321 323 325 326 326 327 329 329 328 326 324 320 315 309 303 298 292 287 283 280 277 274 274 275 276 279 283 278 258 239 233 233 232 229
297 296 295 295 297 300 302 304 307 309 311 312 314 315 317 320 321 323 325 328 330 331 332 335 342 347 350 353 350 346 350 356 351 341 335 333 329 325 323 323 322 322 320 319 318 319 320 321 321 323 323 323 324 326 327 327 329 332 333 333 331 328 324 319 314 309 302 295 289 285 281 277 274 276 277 279 286 288 271 246 235 235 237 237 237
294 293 292 294 296 299 301 304 308 310 312 313 314 316 318 320 322 325 327 330 334 338 341 344 348 351 355 357 353 349 356 1 355 347 347 348 344 342 341 339 336 333 330 327 326 325 325 326 326 326 326 326 327 328 328 329 332 333 335 335 334 332 329 326 321 314 306 299 293 286 280 275 273 274 276 283 294 293 266 240 237 241 242 241 241
290 290 291 293 296 298 302 306 309 311 312 313 314 316 319 322 325 328 331 334 339 344 348 351 353 354 355 354 351 350 356 358 353 350 354 357 358 358 357 353 350 346 342 339 338 335 333 333 332 331 331 331 331 330 331 333 334 335 336 337 335 333 335 336 329 320 311 303 296 288 280 276 275 275 278 284 291 293 280 256 245 242 238 235 234
287 288 290 293 297 300 303 307 310 311 312 313 315 318 321 326 330 332 334 338 343 348 353 357 359 358 355 351 349 352 357 357 353 352 356 359 2 4 4 1 359 356 352 348 347 345 343 342 341 339 338 337 336 335 336 337 337 337 338 338 335 334 338 341 338 329 319 310 302 295 290 288 283 280 285 289 289 289 293 284 265 250 241 235 234
284 286 289 292 297 300 304 307 310 311 312 314 317 322 326 330 334 335 337 341 346 352 357 360 1 0 357 354 355 356 356 355 355 356 358 360 2 4 5 4 2 360 357 355 353 351 350 350 349 348 346 345 344 343 342 341 341 342 342 340 337 336 338 342 342 337 327 316 308 302 300 299 293 286 286 291 291 290 293 288 277 268 260 249 242
283 285 288 293 297 300 304 307 309 311 314 316 320 326 331 334 336 338 339 342 347 353 358 0 1 359 357 358 1 359 354 353 356 360 2 3 4 5 6 5 4 2 360 358 355 354 355 357 358 358 357 355 354 351 348 346 345 346 346 345 341 338 340 342 343 341 335 324 315 308 304 304 299 289 283 284 286 287 290 290 279 267 263 260 254
282 285 288 293 297 299 303 306 309 312 315 318 323 329 333 336 337 338 341 344 348 352 355 357 358 357 356 358 1 359 356 356 359 1 3 5 6 6 7 7 5 4 3 0 358 356 357 0 5 7 7 5 4 1 357 352 348 348 350 350 347 344 343 345 346 346 345 338 327 318 310 306 302 294 288 288 288 284 285 286 277 260 253 255 254
282 285 290 294 296 298 302 306 310 313 314 318 324 330 333 335 336 338 341 346 348 349 350 352 353 356 358 360 1 1 1 1 2 2 4 6 7 8 8 8 7 6 6 5 3 0 359 2 6 11 13 13 12 10 7 2 355 351 351 354 353 350 348 348 351 354 356 356 351 339 325 314 306 298 292 291 289 284 281 281 275 262 256 256 255
283 286 290 293 295 297 302 307 311 312 313 318 324 328 329 330 332 336 341 344 345 346 347 348 351 355 358 1 3 4 5 5 5 6 6 7 8 9 9 9 9 8 7 7 7 6 6 6 7 10 13 16 17 16 14 10 5 360 356 356 357 355 352 352 353 357 359 1 4 1 350 333 318 305 299 297 294 287 281 276 268 260 257 255 250
284 286 289 291 292 295 301 306 309 310 312 316 320 322 323 325 328 333 338 339 340 343 345 347 350 353 356 359 2 3 5 6 7 7 7 8 9 10 10 11 11 9 8 8 8 8 9 10 11 12 14 17 20 21 19 15 12 9 6 3 2 1 359 357 356 356 357 359 4 8 6 0 350 335 328 325 315 300 288 278 269 262 257 253 247
282 285 288 288 288 292 298 303 307 308 310 312 315 315 317 321 325 330 332 333 335 339 342 345 349 350 352 357 359 0 2 3 3 5 7 8 8 9 10 11 12 12 10 8 8 8 9 10 12 14 15 17 20 24 23 20 16 14 12 11 9 6 4 1 358 358 360 3 6 7 5 4 7 8 7 4 353 331 309 293 281 272 264 256 247
281 284 286 286 286 290 295 299 304 307 308 310 312 313 314 318 321 323 325 326 329 334 337 340 344 346 349 353 355 356 357 358 358 0 3 4 6 7 7 8 11 12 12 10 9 8 8 8 10 13 16 17 20 23 25 24 20 18 17 16 14 12 10 8 6 7 9 10 13 14 13 11 13 15 15 16 19 14 2 337 306 284 267 253 241
280 283 284 284 285 288 291 295 301 304 306 308 310 311 313 315 316 317 317 318 322 326 330 333 336 340 344 347 349 350 351 352 353 356 359 1 3 4 5 5 7 8 10 11 10 9 8 7 7 10 14 17 19 21 24 25 24 21 19 19 18 17 16 16 16 18 19 19 20 23 24 23 24 27 28 29 31 33 33 37 47 99 200 205 203
279 281 282 283 284 285 288 292 295 298 301 305 307 308 309 311 311 310 310 311 315 319 322 325 329 333 337 341 342 342 344 345 347 350 353 355 358 0 2 3 4 5 6 8 9 9 9 8 7 8 11 15 18 20 22 24 25 23 20 20 21 22 22 24 25 26 27 28 28 30 31 32 34 37 39 40 41 41 43 46 55 74 113 148 169
278 279 280 281 282 283 285 288 291 295 299 302 304 305 307 307 306 304 304 306 308 311 314 318 323 326 330 333 334 334 336 339 341 344 346 348 351 354 356 358 0 2 4 4 5 6 6 6 6 7 8 10 15 20 21 22 24 24 21 20 22 24 26 27 29 30 31 32 33 34 37 39 43 45 46 45 44 45 49 54 62 76 98 123 151
275 277 279 280 282 283 285 286 289 293 296 299 302 302 302 301 301 301 301 302 304 306 309 313 317 320 323 326 328 328 330 332 335 338 341 342 344 347 350 352 354 356 359 1 1 2 2 2 4 6 6 6 10 16 19 19 20 21 21 21 22 24 26 27 28 30 32 34 36 37 40 43 48 50 51 50 48 49 53 57 62 71 87 109 134